Location: La Bastide
(43.1661°N, 1.2755°E)
Time: 05:06:50
(UTC+00:00)

Cosmos 1953 Rocket - Pass Details

Date: 25 March 2026
Orbit: 599 x 626 km, 82.5° (Epoch: 15 April)

Event Time Altitude Azimuth Distance (km) Brightness Sun altitude
Rises 18:45:35 0° 227° (SW) 2,839 7.6 -6.7°
Reaches altitude 10° 18:48:24 10° 247° (WSW) 1,946 7.1 -7.2°
Maximum altitude 18:51:19 18° 290° (WNW) 1,517 6.9 -7.8°
Drops below altitude 10° 18:54:16 10° 333° (NNW) 1,965 6.7 -8.3°
Sets 18:57:09 0° 353° (N) 2,880 7.2 -8.8°
